Погода в Усть-Поче

Россия / Архангельская область     62°09′15″N   38°09′31″E
темп.,
°C
ветер,
м/с
пор.,
м/с
влажн.,
%
обл.,
%
осадки,
мм/ч
давл.,
гПа
погр.,
м
2 марта, вт
вт200:00+1зсз51197100 0.8 997786
03:000зсз4119099 1.5 998962
06:00−1зсз41089100 0.1 996799
09:00−2зсз61291100 0.3 9971031
12:00−2сз61280100 0.3 9991247
15:00−3сз61180100 0.4 10021309
18:00−5сз51288100 0.1 1005964
21:00−6сз5128999 0.1 1007787
3 марта, ср
ср300:00−8зсз4129095 0.0 1007496
03:00−10з3119352 0.0 1007279
06:00−9з3119568 0.0 1005359
09:00−6з4119284 0.2 1004571
12:00−3зсз5888100 0.1 1003740
15:00−3з5990100 0.3 1002858
18:00−4зсз41094100 0.5 1000675
21:00−6зсз2696100 0.7 999180
4 марта, чт
чт400:00−9сз129782 0.0 99721
03:00−11св129781 0.1 99621
06:00−13ссв239599 0.0 99664
09:00−12с259562 0.0 997183
12:00−8ссз248983 0.0 998361
15:00−6ссз358687 0.1 999724
18:00−10ссз229494 0.1 100021
21:00−13ссз129777 0.1 100120
5 марта, пт
пт500:00−14зсз119757 0.1 100220
03:00−13з129773 0.1 100320
06:00−12з119798 0.2 100424
09:00−13св469499 0.6 1006319
12:00−13ссв358798 0.1 1007481
15:00−12с358298 0.1 1009835
18:00−15ссз2294100 0.1 101036
21:00−17сз229690 0.1 101222
6 марта, сб
сб600:00−19зсз229828 0.0 101220
03:00−19зюз239856 0.0 101260
06:00−16зюз389690 0.1 1010276
09:00−14з379495 0.2 1009313
12:00−10зюз3691100 0.0 1007373
15:00−9юз4788100 0.1 1004625
18:00−10ююз3993100 0.1 1001546
21:00−11ю3994100 0.1 997308